TimeEDT,TemperatureF,Dew PointF,Humidity,Sea Level PressureIn,VisibilityMPH,Wind Direction,Wind SpeedMPH,Gust SpeedMPH,PrecipitationIn,Events,Conditions,WindDirDegrees,DateUTC
12:17 AM,46.4,44.6,93,30.26,2.0,Calm,Calm,-,N/A,,Clear,0,2012-03-20 04:17:00
12:26 AM,46.4,44.6,93,30.26,7.0,Calm,Calm,-,N/A,,Clear,0,2012-03-20 04:26:00
12:53 AM,46.9,45.0,93,30.27,6.0,Calm,Calm,-,N/A,,Clear,0,2012-03-20 04:53:00
1:08 AM,44.6,44.6,100,30.27,1.5,Calm,Calm,-,N/A,,Clear,0,2012-03-20 05:08:00
1:17 AM,44.6,42.8,93,30.27,0.8,Calm,Calm,-,N/A,,Clear,0,2012-03-20 05:17:00
1:26 AM,44.6,42.8,93,30.27,2.5,Calm,Calm,-,N/A,,Clear,0,2012-03-20 05:26:00
1:33 AM,46.4,44.6,93,30.27,4.0,Calm,Calm,-,N/A,,Clear,0,2012-03-20 05:33:00
1:53 AM,46.0,44.1,93,30.27,4.0,Calm,Calm,-,N/A,,Clear,0,2012-03-20 05:53:00
2:15 AM,44.6,42.8,93,30.27,2.5,Calm,Calm,-,N/A,,Clear,0,2012-03-20 06:15:00
2:31 AM,44.6,42.8,93,30.27,3.0,Calm,Calm,-,N/A,,Clear,0,2012-03-20 06:31:00
2:53 AM,44.1,43.0,96,30.27,3.0,Calm,Calm,-,N/A,,Clear,0,2012-03-20 06:53:00
3:12 AM,44.6,42.8,93,30.26,2.5,Calm,Calm,-,N/A,,Clear,0,2012-03-20 07:12:00
3:37 AM,42.8,39.2,87,30.26,2.0,Calm,Calm,-,N/A,,Partly Cloudy,0,2012-03-20 07:37:00
3:42 AM,41.0,39.2,93,30.26,1.0,Calm,Calm,-,N/A,,Mist,0,2012-03-20 07:42:00
3:44 AM,41.0,39.2,93,30.26,0.5,Calm,Calm,-,N/A,Fog,Fog,0,2012-03-20 07:44:00
3:53 AM,42.1,39.9,92,30.27,0.5,Calm,Calm,-,N/A,Fog,Fog,0,2012-03-20 07:53:00
3:56 AM,42.8,39.2,87,30.27,1.2,Calm,Calm,-,N/A,,Partly Cloudy,0,2012-03-20 07:56:00
4:07 AM,42.8,39.2,87,30.27,1.5,Calm,Calm,-,N/A,,Partly Cloudy,0,2012-03-20 08:07:00
4:53 AM,39.9,39.0,97,30.29,0.5,Calm,Calm,-,N/A,Fog,Fog,0,2012-03-20 08:53:00
5:03 AM,39.2,37.4,93,30.29,0.2,Calm,Calm,-,N/A,Fog,Fog,0,2012-03-20 09:03:00
5:09 AM,39.2,37.4,93,30.29,1.0,Calm,Calm,-,N/A,,Mist,0,2012-03-20 09:09:00
5:17 AM,39.2,37.4,93,30.29,1.2,Calm,Calm,-,N/A,,Partly Cloudy,0,2012-03-20 09:17:00
5:20 AM,39.2,37.4,93,30.29,2.5,Calm,Calm,-,N/A,,Partly Cloudy,0,2012-03-20 09:20:00
5:24 AM,39.2,37.4,93,30.29,1.0,Calm,Calm,-,N/A,,Mist,0,2012-03-20 09:24:00
5:28 AM,39.2,37.4,93,30.30,0.5,Calm,Calm,-,N/A,Fog,Fog,0,2012-03-20 09:28:00
5:42 AM,39.2,37.4,93,30.30,2.0,Calm,Calm,-,N/A,,Clear,0,2012-03-20 09:42:00
5:53 AM,39.9,37.9,93,30.30,3.0,Calm,Calm,-,N/A,,Clear,0,2012-03-20 09:53:00
6:01 AM,39.2,37.4,93,30.30,1.5,Calm,Calm,-,N/A,,Partly Cloudy,0,2012-03-20 10:01:00
6:03 AM,39.2,37.4,93,30.30,0.8,Calm,Calm,-,N/A,,Mist,0,2012-03-20 10:03:00
6:53 AM,39.0,37.9,96,30.31,2.0,Calm,Calm,-,N/A,,Partly Cloudy,0,2012-03-20 10:53:00
7:08 AM,39.2,37.4,93,30.31,4.0,Calm,Calm,-,N/A,,Clear,0,2012-03-20 11:08:00
7:53 AM,43.0,42.1,97,30.32,4.0,Calm,Calm,-,N/A,,Clear,0,2012-03-20 11:53:00
8:30 AM,48.2,44.6,87,30.32,4.0,Calm,Calm,-,N/A,,Mostly Cloudy,0,2012-03-20 12:30:00
8:53 AM,48.9,46.0,90,30.32,4.0,Calm,Calm,-,N/A,,Overcast,0,2012-03-20 12:53:00
9:53 AM,55.0,48.9,80,30.33,6.0,WSW,4.6,-,N/A,,Haze,240,2012-03-20 13:53:00
10:24 AM,59.0,51.8,77,30.32,9.0,WSW,6.9,-,N/A,,Scattered Clouds,240,2012-03-20 14:24:00
10:53 AM,63.0,54.0,72,30.32,10.0,WSW,6.9,-,N/A,,Partly Cloudy,250,2012-03-20 14:53:00
11:53 AM,68.0,55.9,65,30.31,10.0,SSW,10.4,-,N/A,,Clear,210,2012-03-20 15:53:00
12:53 PM,73.0,55.9,55,30.30,10.0,West,10.4,-,N/A,,Clear,260,2012-03-20 16:53:00
1:53 PM,75.0,55.0,50,30.28,10.0,WSW,12.7,20.7,N/A,,Clear,240,2012-03-20 17:53:00
2:53 PM,73.0,55.0,53,30.27,10.0,SW,13.8,-,N/A,,Clear,220,2012-03-20 18:53:00
3:53 PM,72.0,57.0,59,30.26,10.0,SSW,15.0,21.9,N/A,,Clear,210,2012-03-20 19:53:00
4:53 PM,71.1,55.0,57,30.25,10.0,SW,12.7,-,N/A,,Clear,220,2012-03-20 20:53:00
5:53 PM,66.2,55.4,68,30.25,10.0,SSW,12.7,-,N/A,,Clear,210,2012-03-20 21:53:00
6:53 PM,62.6,55.4,77,30.26,10.0,SSW,11.5,-,N/A,,Clear,210,2012-03-20 22:53:00
7:53 PM,59.0,55.9,90,30.27,10.0,SW,6.9,-,N/A,,Clear,220,2012-03-20 23:53:00
8:53 PM,55.9,54.0,93,30.29,10.0,SSW,5.8,-,N/A,,Clear,210,2012-03-21 00:53:00
9:53 PM,54.0,52.0,93,30.31,9.0,SSW,5.8,-,N/A,,Clear,200,2012-03-21 01:53:00
10:53 PM,53.1,51.1,93,30.32,6.0,SSW,3.5,-,N/A,,Clear,210,2012-03-21 02:53:00
11:08 PM,51.8,51.8,100,30.32,1.8,SSW,4.6,-,N/A,,Clear,210,2012-03-21 03:08:00
11:18 PM,51.8,50.0,94,30.32,0.5,SW,4.6,-,N/A,Fog,Fog,220,2012-03-21 03:18:00
11:43 PM,51.8,50.0,94,30.32,0.2,SW,4.6,-,N/A,Fog,Fog,220,2012-03-21 03:43:00
11:53 PM,50.0,50.0,100,30.32,0.8,SSW,5.8,-,N/A,,Clear,210,2012-03-21 03:53:00
11:58 PM,50.0,48.2,94,30.32,2.0,SSW,6.9,-,N/A,,Clear,210,2012-03-21 03:58:00